Location: Passau
(48.5830°N, 13.4830°E)
Time: 18:30:22
(UTC+01:00)

NOAA 15 - Visible Passes

Search period start: 03 December 2021 00:00
Search period end: 13 December 2021 00:00
Orbit: 797 x 813 km, 98.7° (Epoch: 03 December)

Date Brightness Start Highest point End Pass type
(mag) Time Alt. Az. Time Alt. Az. Time Alt. Az.
03 Dec 5.9 17:17:24 10° E 17:20:57 19° ENE 17:24:30 10° NNE visible
03 Dec 4.6 18:54:49 10° SSE 19:00:06 81° WSW 19:05:26 10° NNW visible
03 Dec 7.4 20:38:35 10° WSW 20:40:43 12° W 20:42:52 10° WNW visible
04 Dec 6.3 16:54:03 10° ENE 16:56:07 12° NE 16:58:11 10° NNE visible
04 Dec 4.5 18:29:42 10° SSE 18:34:56 65° ENE 18:40:10 10° N visible
04 Dec 6.9 20:11:17 10° SW 20:15:09 20° W 20:19:02 10° NW visible
05 Dec 7.4 06:41:46 10° NE 06:45:17 18° E 06:48:46 10° SE visible
05 Dec 4.9 18:04:55 10° SE 18:09:50 41° ENE 18:14:45 10° N visible
05 Dec 6.2 19:45:00 10° SSW 19:49:42 32° W 19:54:25 10° NNW visible
06 Dec 7.9 06:18:39 10° ENE 06:19:41 11° E 06:20:42 10° E visible
06 Dec 5.4 17:40:28 10° ESE 17:44:49 27° ENE 17:49:12 10° N visible
06 Dec 5.3 19:19:12 10° S 19:24:20 52° W 19:29:29 10° NNW visible
07 Dec 5.9 17:16:25 10° E 17:19:55 18° NE 17:23:24 10° NNE visible
07 Dec 4.5 18:53:46 10° SSE 18:59:03 83° WSW 19:04:22 10° NNW visible
07 Dec 7.4 20:37:23 10° WSW 20:39:39 13° W 20:41:54 10° WNW visible
08 Dec 6.9 07:05:13 10° NE 07:09:42 28° E 07:14:09 10° SSE visible
08 Dec 6.3 16:53:08 10° ENE 16:55:05 12° NE 16:57:02 10° NNE visible
08 Dec 4.5 18:28:40 10° SSE 18:33:52 63° ENE 18:39:05 10° N visible
08 Dec 6.8 20:10:11 10° SW 20:14:05 21° W 20:18:00 10° NW visible
09 Dec 7.4 06:40:45 10° NE 06:44:12 17° E 06:47:38 10° SE visible
09 Dec 4.9 18:03:53 10° SE 18:08:47 40° ENE 18:13:40 10° N visible
09 Dec 6.1 19:43:54 10° SSW 19:48:37 33° W 19:53:22 10° NNW visible
10 Dec 8.0 06:17:54 10° ENE 06:18:36 10° E 06:19:17 10° E visible
10 Dec 5.5 17:39:27 10° ESE 17:43:47 27° ENE 17:48:07 10° N visible
10 Dec 5.2 19:18:07 10° S 19:23:15 53° W 19:28:26 10° NNW visible
11 Dec 5.9 17:15:26 10° E 17:18:51 18° NE 17:22:17 10° NNE visible
11 Dec 4.5 18:52:42 10° SSE 18:57:59 84° WSW 19:03:17 10° NNW visible
11 Dec 7.4 20:36:13 10° WSW 20:38:34 13° W 20:40:56 10° WNW visible
12 Dec 6.9 07:04:10 10° NE 07:08:37 27° E 07:13:03 10° SSE visible
12 Dec 6.3 16:52:12 10° ENE 16:54:02 12° NE 16:55:52 10° NNE visible
12 Dec 4.5 18:27:37 10° SSE 18:32:49 62° ENE 18:38:01 10° N visible
12 Dec 6.8 20:09:04 10° SW 20:13:01 21° W 20:16:58 10° NW visible
